Regional Weather Roundup
Issued by NWS

Home | Current Version | Previous Version | Graphics & Text | Print | Product List | Glossary On
Versions: 1 2 3 4 5 6 7 8 9 10 11 12 13 14 15 16 17 18 19 20 21 22 23 24 25 26 27 28 29 30 31 32 33 34 35 36 37 38 39 40 41 42 43 44 45 46 47 48 49 50
477
ASUS43 KLSX 241957
RWRMO

WEATHER SUMMARY FOR MISSOURI
NATIONAL WEATHER SERVICE SPRINGFIELD MO
300 PM CDT THU MAY 24 2018

NOTE: "FAIR" INDICATES FEW OR NO CLOUDS BELOW 12,000 FEET WITH NO
       SIGNIFICANT WEATHER AND/OR OBSTRUCTIONS TO VISIBILITY.
       CURRENT SKY AND/OR WEATHER CONDITIONS ARE NOT AVAILABLE FOR
       CHILLICOTHE AND FARMINGTON.

MOZ001>031-035>038-043-044-053-054-242100-
...NORTHERN AND WESTERN MISSOURI...

CITY           SKY/WX    TMP DP  RH WIND       PRES   REMARKS
KANSAS CTY INT CLOUDY    83  69  62 SE16      30.04F
LEE`S SUMMIT   CLOUDY    84  68  58 SE13      30.06F
ST JOSEPH      MOSUNNY   87  67  51 S14G28    30.01F HX  90
CHILLICOTHE      N/A     84  65  52 S9G18     30.06S

$$
MOZ066>068-077>081-088>096-101>105-242100-
...SOUTHWEST MISSOURI...

CITY           SKY/WX    TMP DP  RH WIND       PRES   REMARKS
SPRINGFIELD    MOSUNNY   83  66  56 S8        30.08F
JOPLIN         PTSUNNY   82  69  64 VRB3      30.06F
BRANSON        MOSUNNY   84  66  54 CALM      30.11F

$$
MOZ032>034-039>042-045>050-055>058-069>072-242100-
...CENTRAL MISSOURI...

CITY           SKY/WX    TMP DP  RH WIND       PRES   REMARKS
COLUMBIA       NOT AVBL
JEFFERSON CITY SUNNY     87  65  47 SE9       30.06F
ROLLA          MOSUNNY   84  67  56 W3        30.10F
SEDALIA        CLOUDY    84  68  58 S12       30.08F
WARRENSBURG    CLOUDY    82  64  54 SE9       30.06F

$$
MOZ051-052-059>065-242100-
...EAST CENTRAL MISSOURI...

CITY           SKY/WX    TMP DP  RH WIND       PRES   REMARKS
ST LOUIS INTL  PTSUNNY   87  62  43 SE10      30.09F

$$
MOZ072>076-082>087-097>100-106>115-242100-
...SOUTH CENTRAL AND SOUTHEAST MISSOURI...

CITY           SKY/WX    TMP DP  RH WIND       PRES   REMARKS
CAPE GIRARDEAU FAIR      88  63  43 NE9       30.06F
POPLAR BLUFF   FAIR      88  67  49 VRB6      30.05F HX  91
WEST PLAINS    MOSUNNY   83  65  54 VRB5      30.11F

$$




USA.gov is the U.S. government's official web portal to all federal, state and local government web resources and services.